sat.trackr.live / text

‹ back to catalog

STARLINK-30067

NORAD 56693 · 2023-067F

PAYLOAD ACTIVE UNKNOWN

§ Identity

Operator
Country
US
Launch date
2023-05-19
Launch site
AFETR
Launch vehicle
Mass (kg)
RCS (m²)

Purposes: comms

External: N2YO · Heavens-Above · Gunter

§ Orbital elements

Epoch: 2026-05-25T05:13:20.060256Z

Period
94.27 min
Inclination
43.0029°
Eccentricity
0.0001388
Mean motion
15.27584900 rev/d
Perigee alt
482.1 km
Apogee alt
484.0 km
Semi-major
6,861.2 km
B*
2.3586e-4
RAAN
209.1235°
Arg perigee
265.3870°
Mean anomaly
94.6823°
Rev number
16,728

§ Raw data

STARLINK-300671 56693U 23067F   26145.21759329  .00006235  00000+0  23586-3 0  99952 56693  43.0029 209.1235 0001388 265.3870  94.6823 15.27584900167289

JSON: /api/v1/satellites/56693 · /tle

For live sub-satellite position, see the globe view (requires WebGL).

§ Visibility from observer

Set your observer location to see the next 7 days of passes ≥ 10°. The values pass through the URL so the page stays shareable.

No JS? Fill the form by hand. The geolocation button needs JavaScript.